Year,Month,Day,Hour,Minute,Value (Times are PST for temperature in C)
2018,06,17,00,00,18.20
2018,06,17,00,01,18.20
2018,06,17,00,02,18.20
2018,06,17,00,03,18.20
2018,06,17,00,04,18.20
2018,06,17,00,05,18.20
2018,06,17,00,06,18.20
2018,06,17,00,07,18.20
2018,06,17,00,08,18.20
2018,06,17,00,09,18.20
2018,06,17,00,10,18.30
2018,06,17,00,11,18.30
2018,06,17,00,12,18.30
2018,06,17,00,13,18.30
2018,06,17,00,14,18.30
2018,06,17,00,15,18.30
2018,06,17,00,16,18.30
2018,06,17,00,17,18.20
2018,06,17,00,18,18.20
2018,06,17,00,19,18.20
2018,06,17,00,20,18.20
2018,06,17,00,21,18.30
2018,06,17,00,22,18.30
2018,06,17,00,23,18.30
2018,06,17,00,24,18.30
2018,06,17,00,25,18.30
2018,06,17,00,26,18.30
2018,06,17,00,27,18.30
2018,06,17,00,28,18.40
2018,06,17,00,29,18.40
2018,06,17,00,30,18.40
2018,06,17,00,31,18.40
2018,06,17,00,32,18.40
2018,06,17,00,33,18.30
2018,06,17,00,34,18.30
2018,06,17,00,35,18.30
2018,06,17,00,36,18.30
2018,06,17,00,37,18.20
2018,06,17,00,38,18.20
2018,06,17,00,39,18.20
2018,06,17,00,40,18.20
2018,06,17,00,41,18.30
2018,06,17,00,42,18.30
2018,06,17,00,43,18.30
2018,06,17,00,44,18.30
2018,06,17,00,45,18.40
2018,06,17,00,46,18.40
2018,06,17,00,47,18.40
2018,06,17,00,48,18.50
2018,06,17,00,49,18.50
2018,06,17,00,50,18.50
2018,06,17,00,51,18.50
2018,06,17,00,52,18.50
2018,06,17,00,53,18.50
2018,06,17,00,54,18.50
2018,06,17,00,55,18.60
2018,06,17,00,56,18.50
2018,06,17,00,57,18.50
2018,06,17,00,58,18.50
2018,06,17,00,59,18.50
2018,06,17,01,00,18.40
2018,06,17,01,01,18.40
2018,06,17,01,02,18.40
2018,06,17,01,03,18.40
2018,06,17,01,04,18.40
2018,06,17,01,05,18.30
2018,06,17,01,06,18.20
2018,06,17,01,07,18.20
2018,06,17,01,08,18.20
2018,06,17,01,09,18.10
2018,06,17,01,10,18.10
2018,06,17,01,11,18.10
2018,06,17,01,12,17.90
2018,06,17,01,13,17.90
2018,06,17,01,14,17.90
2018,06,17,01,15,17.90
2018,06,17,01,16,17.80
2018,06,17,01,17,17.80
2018,06,17,01,18,17.80
2018,06,17,01,19,17.80
2018,06,17,01,20,17.70
2018,06,17,01,21,17.70
2018,06,17,01,22,17.70
2018,06,17,01,23,17.70
2018,06,17,01,24,17.70
2018,06,17,01,25,17.60
2018,06,17,01,26,17.50
2018,06,17,01,27,17.50
2018,06,17,01,28,17.40
2018,06,17,01,29,17.40
2018,06,17,01,30,17.40
2018,06,17,01,31,17.30
2018,06,17,01,32,17.30
2018,06,17,01,33,17.30
2018,06,17,01,34,17.30
2018,06,17,01,35,17.30
2018,06,17,01,36,17.20
2018,06,17,01,37,17.20
2018,06,17,01,38,17.20
2018,06,17,01,39,17.20
2018,06,17,01,40,17.20
2018,06,17,01,41,17.10
2018,06,17,01,42,17.10
2018,06,17,01,43,17.10
2018,06,17,01,44,17.10
2018,06,17,01,45,17.10
2018,06,17,01,46,17.10
2018,06,17,01,47,17.10
2018,06,17,01,48,17.00
2018,06,17,01,49,17.00
2018,06,17,01,50,17.00
2018,06,17,01,51,17.00
2018,06,17,01,52,17.00
2018,06,17,01,53,17.10
2018,06,17,01,54,17.10
2018,06,17,01,55,17.20
2018,06,17,01,56,17.20
2018,06,17,01,57,17.30
2018,06,17,01,58,17.30
2018,06,17,01,59,17.40
2018,06,17,02,00,17.50
2018,06,17,02,01,17.50
2018,06,17,02,02,17.60
2018,06,17,02,03,17.60
2018,06,17,02,04,17.60
2018,06,17,02,05,17.60
2018,06,17,02,06,17.60
2018,06,17,02,07,17.60
2018,06,17,02,08,17.60
2018,06,17,02,09,17.70
2018,06,17,02,10,17.70
2018,06,17,02,11,17.70
2018,06,17,02,12,17.70
2018,06,17,02,13,17.70
2018,06,17,02,14,17.70
2018,06,17,02,15,17.60
2018,06,17,02,16,17.60
2018,06,17,02,17,17.60
2018,06,17,02,18,17.50
2018,06,17,02,19,17.50
2018,06,17,02,20,17.50
2018,06,17,02,21,17.40
2018,06,17,02,22,17.40
2018,06,17,02,23,17.30
2018,06,17,02,24,17.30
2018,06,17,02,25,17.30
2018,06,17,02,26,17.20
2018,06,17,02,27,17.20
2018,06,17,02,28,17.20
2018,06,17,02,29,17.20
2018,06,17,02,30,17.20
2018,06,17,02,31,17.10
2018,06,17,02,32,17.20
2018,06,17,02,33,17.20
2018,06,17,02,34,17.20
2018,06,17,02,35,17.10
2018,06,17,02,36,17.10
2018,06,17,02,37,17.10
2018,06,17,02,38,17.00
2018,06,17,02,39,17.00
2018,06,17,02,40,17.00
2018,06,17,02,41,17.00
2018,06,17,02,42,17.00
2018,06,17,02,43,17.00
2018,06,17,02,44,17.00
2018,06,17,02,45,17.00
2018,06,17,02,46,17.10
2018,06,17,02,47,17.10
2018,06,17,02,48,17.20
2018,06,17,02,49,17.20
2018,06,17,02,50,17.20
2018,06,17,02,51,17.20
2018,06,17,02,52,17.20
2018,06,17,02,53,17.20
2018,06,17,02,54,17.20
2018,06,17,02,55,17.20
2018,06,17,02,56,17.20
2018,06,17,02,57,17.20
2018,06,17,02,58,17.20
2018,06,17,02,59,17.30
2018,06,17,03,00,17.30
2018,06,17,03,01,17.30
2018,06,17,03,02,17.30
2018,06,17,03,03,17.30
2018,06,17,03,04,17.30
2018,06,17,03,05,17.30
2018,06,17,03,06,17.30
2018,06,17,03,07,17.30
2018,06,17,03,08,17.30
2018,06,17,03,09,17.20
2018,06,17,03,10,17.20
2018,06,17,03,11,17.20
2018,06,17,03,12,17.10
2018,06,17,03,13,17.10
2018,06,17,03,14,17.10
2018,06,17,03,15,17.00
2018,06,17,03,16,17.00
2018,06,17,03,17,17.00
2018,06,17,03,18,17.00
2018,06,17,03,19,16.90
2018,06,17,03,20,16.90
2018,06,17,03,21,16.90
2018,06,17,03,22,16.90
2018,06,17,03,23,16.90
2018,06,17,03,24,16.90
2018,06,17,03,25,16.90
2018,06,17,03,26,16.90
2018,06,17,03,27,16.90
2018,06,17,03,28,16.80
2018,06,17,03,29,16.80
2018,06,17,03,30,16.80
2018,06,17,03,31,16.80
2018,06,17,03,32,16.70
2018,06,17,03,33,16.70
2018,06,17,03,34,16.70
2018,06,17,03,35,16.70
2018,06,17,03,36,16.70
2018,06,17,03,37,16.70
2018,06,17,03,38,16.70
2018,06,17,03,39,16.70
2018,06,17,03,40,16.70
2018,06,17,03,41,16.70
2018,06,17,03,42,16.60
2018,06,17,03,43,16.60
2018,06,17,03,44,16.60
2018,06,17,03,45,16.50
2018,06,17,03,46,16.40
2018,06,17,03,47,16.40
2018,06,17,03,48,16.40
2018,06,17,03,49,16.40
2018,06,17,03,50,16.40
2018,06,17,03,51,16.30
2018,06,17,03,52,16.30
2018,06,17,03,53,16.30
2018,06,17,03,54,16.30
2018,06,17,03,55,16.30
2018,06,17,03,56,16.40
2018,06,17,03,57,16.40
2018,06,17,03,58,16.40
2018,06,17,03,59,16.40
2018,06,17,04,00,16.40
2018,06,17,04,01,16.40
2018,06,17,04,02,16.40
2018,06,17,04,03,16.40
2018,06,17,04,04,16.40
2018,06,17,04,05,16.40
2018,06,17,04,06,16.30
2018,06,17,04,07,16.30
2018,06,17,04,08,16.30
2018,06,17,04,09,16.30
2018,06,17,04,10,16.30
2018,06,17,04,11,16.20
2018,06,17,04,12,16.20
2018,06,17,04,13,16.20
2018,06,17,04,14,16.20
2018,06,17,04,15,16.10
2018,06,17,04,16,16.10
2018,06,17,04,17,16.10
2018,06,17,04,18,16.10
2018,06,17,04,19,16.10
2018,06,17,04,20,16.10
2018,06,17,04,21,16.20
2018,06,17,04,22,16.20
2018,06,17,04,23,16.20
2018,06,17,04,24,16.20
2018,06,17,04,25,16.20
2018,06,17,04,26,16.20
2018,06,17,04,27,16.20
2018,06,17,04,28,16.20
2018,06,17,04,29,16.20
2018,06,17,04,30,16.20
2018,06,17,04,31,16.10
2018,06,17,04,32,16.10
2018,06,17,04,33,16.10
2018,06,17,04,34,16.10
2018,06,17,04,35,16.10
2018,06,17,04,36,16.10
2018,06,17,04,37,16.10
2018,06,17,04,38,16.10
2018,06,17,04,39,16.10
2018,06,17,04,40,16.00
2018,06,17,04,41,15.90
2018,06,17,04,42,15.90
2018,06,17,04,43,15.90
2018,06,17,04,44,15.90
2018,06,17,04,45,15.80
2018,06,17,04,46,15.80
2018,06,17,04,47,15.90
2018,06,17,04,48,15.90
2018,06,17,04,49,15.90
2018,06,17,04,50,15.90
2018,06,17,04,51,15.90
2018,06,17,04,52,15.90
2018,06,17,04,53,15.90
2018,06,17,04,54,16.10
2018,06,17,04,55,16.10
2018,06,17,04,56,16.10
2018,06,17,04,57,16.10
2018,06,17,04,58,16.10
2018,06,17,04,59,16.10
2018,06,17,05,00,16.10
2018,06,17,05,01,16.10
2018,06,17,05,02,16.10
2018,06,17,05,03,16.10
2018,06,17,05,04,16.10
2018,06,17,05,05,16.10
2018,06,17,05,06,16.10
2018,06,17,05,07,16.10
2018,06,17,05,08,16.10
2018,06,17,05,09,16.10
2018,06,17,05,10,16.10
2018,06,17,05,11,16.10
2018,06,17,05,12,16.10
2018,06,17,05,13,16.10
2018,06,17,05,14,16.10
2018,06,17,05,15,16.10
2018,06,17,05,16,16.10
2018,06,17,05,17,16.10
2018,06,17,05,18,16.10
2018,06,17,05,19,16.10
2018,06,17,05,20,16.10
2018,06,17,05,21,16.10
2018,06,17,05,22,16.00
2018,06,17,05,23,15.90
2018,06,17,05,24,15.90
2018,06,17,05,25,15.80
2018,06,17,05,26,15.80
2018,06,17,05,27,15.80
2018,06,17,05,28,15.70
2018,06,17,05,29,15.70
2018,06,17,05,30,15.60
2018,06,17,05,31,15.60
2018,06,17,05,32,15.50
2018,06,17,05,33,15.50
2018,06,17,05,34,15.40
2018,06,17,05,35,15.40
2018,06,17,05,36,15.30
2018,06,17,05,37,15.30
2018,06,17,05,38,15.20
2018,06,17,05,39,15.20
2018,06,17,05,40,15.10
2018,06,17,05,41,15.10
2018,06,17,05,42,15.00
2018,06,17,05,43,15.00
2018,06,17,05,44,15.00
2018,06,17,05,45,14.90
2018,06,17,05,46,14.90
2018,06,17,05,47,14.80
2018,06,17,05,48,14.80
2018,06,17,05,49,14.80
2018,06,17,05,50,14.80
2018,06,17,05,51,14.80
2018,06,17,05,52,14.80
2018,06,17,05,53,14.80
2018,06,17,05,54,14.80
2018,06,17,05,55,14.80
2018,06,17,05,56,14.80
2018,06,17,05,57,14.80
2018,06,17,05,58,14.80
2018,06,17,05,59,14.80
2018,06,17,06,00,14.80
2018,06,17,06,01,14.80
2018,06,17,06,02,14.80
2018,06,17,06,03,14.80
2018,06,17,06,04,14.90
2018,06,17,06,05,14.90
2018,06,17,06,06,15.00
2018,06,17,06,07,15.00
2018,06,17,06,08,15.10
2018,06,17,06,09,15.20
2018,06,17,06,10,15.20
2018,06,17,06,11,15.30
2018,06,17,06,12,15.30
2018,06,17,06,13,15.40
2018,06,17,06,14,15.40
2018,06,17,06,15,15.50
2018,06,17,06,16,15.50
2018,06,17,06,17,15.50
2018,06,17,06,18,15.60
2018,06,17,06,19,15.60
2018,06,17,06,20,15.60
2018,06,17,06,21,15.70
2018,06,17,06,22,15.70
2018,06,17,06,23,15.80
2018,06,17,06,24,15.80
2018,06,17,06,25,15.80
2018,06,17,06,26,15.90
2018,06,17,06,27,15.90
2018,06,17,06,28,16.10
2018,06,17,06,29,16.10
2018,06,17,06,30,16.20
2018,06,17,06,31,16.30
2018,06,17,06,32,16.30
2018,06,17,06,33,16.40
2018,06,17,06,34,16.40
2018,06,17,06,35,16.50
2018,06,17,06,36,16.70
2018,06,17,06,37,16.80
2018,06,17,06,38,17.00
2018,06,17,06,39,17.00
2018,06,17,06,40,17.20
2018,06,17,06,41,17.30
2018,06,17,06,42,17.40
2018,06,17,06,43,17.60
2018,06,17,06,44,17.80
2018,06,17,06,45,17.90
2018,06,17,06,46,18.10
2018,06,17,06,47,18.20
2018,06,17,06,48,18.20
2018,06,17,06,49,18.30
2018,06,17,06,50,18.50
2018,06,17,06,51,18.60
2018,06,17,06,52,18.70
2018,06,17,06,53,18.90
2018,06,17,06,54,18.90
2018,06,17,06,55,19.00
2018,06,17,06,56,19.10
2018,06,17,06,57,19.20
2018,06,17,06,58,19.30
2018,06,17,06,59,19.30
2018,06,17,07,00,19.10
2018,06,17,07,01,19.10
2018,06,17,07,02,19.10
2018,06,17,07,03,19.10
2018,06,17,07,04,19.10
2018,06,17,07,05,19.10
2018,06,17,07,06,19.10
2018,06,17,07,07,19.10
2018,06,17,07,08,19.10
2018,06,17,07,09,19.10
2018,06,17,07,10,19.10
2018,06,17,07,11,19.10
2018,06,17,07,12,19.10
2018,06,17,07,13,19.20
2018,06,17,07,14,19.20
2018,06,17,07,15,19.10
2018,06,17,07,16,19.10
2018,06,17,07,17,19.10
2018,06,17,07,18,19.10
2018,06,17,07,19,19.20
2018,06,17,07,20,19.30
2018,06,17,07,21,19.40
2018,06,17,07,22,19.50
2018,06,17,07,23,19.60
2018,06,17,07,24,19.70
2018,06,17,07,25,19.80
2018,06,17,07,26,19.90
2018,06,17,07,27,19.90
2018,06,17,07,28,20.00
2018,06,17,07,29,20.10
2018,06,17,07,30,20.10
2018,06,17,07,31,20.10
2018,06,17,07,32,20.10
2018,06,17,07,33,20.10
2018,06,17,07,34,19.90
2018,06,17,07,35,19.90
2018,06,17,07,36,19.90
2018,06,17,07,37,19.90
2018,06,17,07,38,19.90
2018,06,17,07,39,20.00
2018,06,17,07,40,20.10
2018,06,17,07,41,20.10
2018,06,17,07,42,20.00
2018,06,17,07,43,19.90
2018,06,17,07,44,19.90
2018,06,17,07,45,19.80
2018,06,17,07,46,19.80
2018,06,17,07,47,19.80
2018,06,17,07,48,19.80
2018,06,17,07,49,19.80
2018,06,17,07,50,19.80
2018,06,17,07,51,19.80
2018,06,17,07,52,19.80
2018,06,17,07,53,19.70
2018,06,17,07,54,19.70
2018,06,17,07,55,19.70
2018,06,17,07,56,19.70
2018,06,17,07,57,19.80
2018,06,17,07,58,19.90
2018,06,17,07,59,19.90
2018,06,17,08,00,19.90
2018,06,17,08,01,19.90
2018,06,17,08,02,19.90
2018,06,17,08,03,19.90
2018,06,17,08,04,20.00
2018,06,17,08,05,20.10
2018,06,17,08,06,20.20
2018,06,17,08,07,20.20
2018,06,17,08,08,20.00
2018,06,17,08,09,19.90
2018,06,17,08,10,19.90
2018,06,17,08,11,19.90
2018,06,17,08,12,19.90
2018,06,17,08,13,19.90
2018,06,17,08,14,19.90
2018,06,17,08,15,20.10
2018,06,17,08,16,20.10
2018,06,17,08,17,20.20
2018,06,17,08,18,20.20
2018,06,17,08,19,20.40
2018,06,17,08,20,20.50
2018,06,17,08,21,20.60
2018,06,17,08,22,20.70
2018,06,17,08,23,20.80
2018,06,17,08,24,20.70
2018,06,17,08,25,20.80
2018,06,17,08,26,20.70
2018,06,17,08,27,20.70
2018,06,17,08,28,20.70
2018,06,17,08,29,20.60
2018,06,17,08,30,20.50
2018,06,17,08,31,20.50
2018,06,17,08,32,20.30
2018,06,17,08,33,20.30
2018,06,17,08,34,20.30
2018,06,17,08,35,20.20
2018,06,17,08,36,20.20
2018,06,17,08,37,20.40
2018,06,17,08,38,20.40
2018,06,17,08,39,20.50
2018,06,17,08,40,20.50
2018,06,17,08,41,20.50
2018,06,17,08,42,20.50
2018,06,17,08,43,20.50
2018,06,17,08,44,20.50
2018,06,17,08,45,20.50
2018,06,17,08,46,20.40
2018,06,17,08,47,20.30
2018,06,17,08,48,20.20
2018,06,17,08,49,20.30
2018,06,17,08,50,20.40
2018,06,17,08,51,20.40
2018,06,17,08,52,20.40
2018,06,17,08,53,20.50
2018,06,17,08,54,20.50
2018,06,17,08,55,20.50
2018,06,17,08,56,20.50
2018,06,17,08,57,20.50
2018,06,17,08,58,20.60
2018,06,17,08,59,20.70
2018,06,17,09,00,20.80
2018,06,17,09,01,20.90
2018,06,17,09,02,21.00
2018,06,17,09,03,21.10
2018,06,17,09,04,21.10
2018,06,17,09,05,21.30
2018,06,17,09,06,21.30
2018,06,17,09,07,21.40
2018,06,17,09,08,21.30
2018,06,17,09,09,21.30
2018,06,17,09,10,21.30
2018,06,17,09,11,21.30
2018,06,17,09,12,21.20
2018,06,17,09,13,21.00
2018,06,17,09,14,20.90
2018,06,17,09,15,20.90
2018,06,17,09,16,20.70
2018,06,17,09,17,20.50
2018,06,17,09,18,20.50
2018,06,17,09,19,20.40
2018,06,17,09,20,20.30
2018,06,17,09,21,20.30
2018,06,17,09,22,20.40
2018,06,17,09,23,20.50
2018,06,17,09,24,20.50
2018,06,17,09,25,20.60
2018,06,17,09,26,20.70
2018,06,17,09,27,20.80
2018,06,17,09,28,20.70
2018,06,17,09,29,20.70
2018,06,17,09,30,20.80
2018,06,17,09,31,20.80
2018,06,17,09,32,20.80
2018,06,17,09,33,20.80
2018,06,17,09,34,20.80
2018,06,17,09,35,20.80
2018,06,17,09,36,20.80
2018,06,17,09,37,20.90
2018,06,17,09,38,20.80
2018,06,17,09,39,20.70
2018,06,17,09,40,20.60
2018,06,17,09,41,20.60
2018,06,17,09,42,20.50
2018,06,17,09,43,20.50
2018,06,17,09,44,20.40
2018,06,17,09,45,20.20
2018,06,17,09,46,20.10
2018,06,17,09,47,20.10
2018,06,17,09,48,20.20
2018,06,17,09,49,20.20
2018,06,17,09,50,20.20
2018,06,17,09,51,20.20
2018,06,17,09,52,20.20
2018,06,17,09,53,20.30
2018,06,17,09,54,20.30
2018,06,17,09,55,20.30
2018,06,17,09,56,20.40
2018,06,17,09,57,20.50
2018,06,17,09,58,20.60
2018,06,17,09,59,20.50
2018,06,17,10,00,20.50
2018,06,17,10,01,20.50
2018,06,17,10,02,20.50
2018,06,17,10,03,20.50
2018,06,17,10,04,20.60
2018,06,17,10,05,20.50
2018,06,17,10,06,20.50
2018,06,17,10,07,20.40
2018,06,17,10,08,20.40
2018,06,17,10,09,20.30
2018,06,17,10,10,20.20
2018,06,17,10,11,20.20
2018,06,17,10,12,20.20
2018,06,17,10,13,20.30
2018,06,17,10,14,20.20
2018,06,17,10,15,20.20
2018,06,17,10,16,20.20
2018,06,17,10,17,20.40
2018,06,17,10,18,20.50
2018,06,17,10,19,20.60
2018,06,17,10,20,20.80
2018,06,17,10,21,20.90
2018,06,17,10,22,21.00
2018,06,17,10,23,21.00
2018,06,17,10,24,21.00
2018,06,17,10,25,21.00
2018,06,17,10,26,21.00
2018,06,17,10,27,20.90
2018,06,17,10,28,20.90
2018,06,17,10,29,20.80
2018,06,17,10,30,20.70
2018,06,17,10,31,20.60
2018,06,17,10,32,20.50
2018,06,17,10,33,20.40
2018,06,17,10,34,20.40
2018,06,17,10,35,20.40
2018,06,17,10,36,20.40
2018,06,17,10,37,20.50
2018,06,17,10,38,20.50
2018,06,17,10,39,20.60
2018,06,17,10,40,20.60
2018,06,17,10,41,20.60
2018,06,17,10,42,20.60
2018,06,17,10,43,20.70
2018,06,17,10,44,20.80
2018,06,17,10,45,21.00
2018,06,17,10,46,21.10
2018,06,17,10,47,21.10
2018,06,17,10,48,21.10
2018,06,17,10,49,21.20
2018,06,17,10,50,21.30
2018,06,17,10,51,21.40
2018,06,17,10,52,21.50
2018,06,17,10,53,21.60
2018,06,17,10,54,21.60
2018,06,17,10,55,21.60
2018,06,17,10,56,21.60
2018,06,17,10,57,21.60
2018,06,17,10,58,21.50
2018,06,17,10,59,21.40
2018,06,17,11,00,21.40
2018,06,17,11,01,21.50
2018,06,17,11,02,21.50
2018,06,17,11,03,21.30
2018,06,17,11,04,21.40
2018,06,17,11,05,21.30
2018,06,17,11,06,21.30
2018,06,17,11,07,21.20
2018,06,17,11,08,21.20
2018,06,17,11,09,21.20
2018,06,17,11,10,21.30
2018,06,17,11,11,21.30
2018,06,17,11,12,21.40
2018,06,17,11,13,21.50
2018,06,17,11,14,21.50
2018,06,17,11,15,21.40
2018,06,17,11,16,21.30
2018,06,17,11,17,21.20
2018,06,17,11,18,21.20
2018,06,17,11,19,21.20
2018,06,17,11,20,21.10
2018,06,17,11,21,21.00
2018,06,17,11,22,21.00
2018,06,17,11,23,21.00
2018,06,17,11,24,21.00
2018,06,17,11,25,21.20
2018,06,17,11,26,21.20
2018,06,17,11,27,21.20
2018,06,17,11,28,21.30
2018,06,17,11,29,21.50
2018,06,17,11,30,21.60
2018,06,17,11,31,21.60
2018,06,17,11,32,21.60
2018,06,17,11,33,21.60
2018,06,17,11,34,21.60
2018,06,17,11,35,21.50
2018,06,17,11,36,21.60
2018,06,17,11,37,21.60
2018,06,17,11,38,21.70
2018,06,17,11,39,21.70
2018,06,17,11,40,21.60
2018,06,17,11,41,21.70
2018,06,17,11,42,21.80
2018,06,17,11,43,21.80
2018,06,17,11,44,21.70
2018,06,17,11,45,21.60
2018,06,17,11,46,21.70
2018,06,17,11,47,21.80
2018,06,17,11,48,21.90
2018,06,17,11,49,22.00
2018,06,17,11,50,22.00
2018,06,17,11,51,22.00
2018,06,17,11,52,22.00
2018,06,17,11,53,22.00
2018,06,17,11,54,21.80
2018,06,17,11,55,21.70
2018,06,17,11,56,21.80
2018,06,17,11,57,21.80
2018,06,17,11,58,21.90
2018,06,17,11,59,21.90
2018,06,17,12,00,21.80
2018,06,17,12,01,21.90
2018,06,17,12,02,21.90
2018,06,17,12,03,22.00
2018,06,17,12,04,22.20
2018,06,17,12,05,22.20
2018,06,17,12,06,22.10
2018,06,17,12,07,22.00
2018,06,17,12,08,21.90
2018,06,17,12,09,22.00
2018,06,17,12,10,22.00
2018,06,17,12,11,22.20
2018,06,17,12,12,22.20
2018,06,17,12,13,22.30
2018,06,17,12,14,22.30
2018,06,17,12,15,22.20
2018,06,17,12,16,22.30
2018,06,17,12,17,22.30
2018,06,17,12,18,22.20
2018,06,17,12,19,22.20
2018,06,17,12,20,22.20
2018,06,17,12,21,22.20
2018,06,17,12,22,22.30
2018,06,17,12,23,22.30
2018,06,17,12,24,22.40
2018,06,17,12,25,22.50
2018,06,17,12,26,22.60
2018,06,17,12,27,22.60
2018,06,17,12,28,22.70
2018,06,17,12,29,22.80
2018,06,17,12,30,22.80
2018,06,17,12,31,22.90
2018,06,17,12,32,22.90
2018,06,17,12,33,22.90
2018,06,17,12,34,22.80
2018,06,17,12,35,22.80
2018,06,17,12,36,22.80
2018,06,17,12,37,22.80
2018,06,17,12,38,22.80
2018,06,17,12,39,22.80
2018,06,17,12,40,22.90
2018,06,17,12,41,22.90
2018,06,17,12,42,22.90
2018,06,17,12,43,23.00
2018,06,17,12,44,23.10
2018,06,17,12,45,23.20
2018,06,17,12,46,23.30
2018,06,17,12,47,23.40
2018,06,17,12,48,23.40
2018,06,17,12,49,23.40
2018,06,17,12,50,23.40
2018,06,17,12,51,23.50
2018,06,17,12,52,23.60
2018,06,17,12,53,23.60
2018,06,17,12,54,23.50
2018,06,17,12,55,23.60
2018,06,17,12,56,23.70
2018,06,17,12,57,23.70
2018,06,17,12,58,23.70
2018,06,17,12,59,23.70
2018,06,17,13,00,23.80
2018,06,17,13,01,23.90
2018,06,17,13,02,24.00
2018,06,17,13,03,24.10
2018,06,17,13,04,24.10
2018,06,17,13,05,24.10
2018,06,17,13,06,24.30
2018,06,17,13,07,24.40
2018,06,17,13,08,24.50
2018,06,17,13,09,24.50
2018,06,17,13,10,24.50
2018,06,17,13,11,24.50
2018,06,17,13,12,24.40
2018,06,17,13,13,24.40
2018,06,17,13,14,24.40
2018,06,17,13,15,24.50
2018,06,17,13,16,24.60
2018,06,17,13,17,24.60
2018,06,17,13,18,24.70
2018,06,17,13,19,24.80
2018,06,17,13,20,24.80
2018,06,17,13,21,24.80
2018,06,17,13,22,24.80
2018,06,17,13,23,24.70
2018,06,17,13,24,24.60
2018,06,17,13,25,24.60
2018,06,17,13,26,24.60
2018,06,17,13,27,24.70
2018,06,17,13,28,24.90
2018,06,17,13,29,25.00
2018,06,17,13,30,25.20
2018,06,17,13,31,25.30
2018,06,17,13,32,25.30
2018,06,17,13,33,25.20
2018,06,17,13,34,25.10
2018,06,17,13,35,24.90
2018,06,17,13,36,24.90
2018,06,17,13,37,24.90
2018,06,17,13,38,25.00
2018,06,17,13,39,25.00
2018,06,17,13,40,25.10
2018,06,17,13,41,25.20
2018,06,17,13,42,25.20
2018,06,17,13,43,25.20
2018,06,17,13,44,25.10
2018,06,17,13,45,24.90
2018,06,17,13,46,24.80
2018,06,17,13,47,24.70
2018,06,17,13,48,24.60
2018,06,17,13,49,24.50
2018,06,17,13,50,24.30
2018,06,17,13,51,24.20
2018,06,17,13,52,24.00
2018,06,17,13,53,23.80
2018,06,17,13,54,23.70
2018,06,17,13,55,23.80
2018,06,17,13,56,23.90
2018,06,17,13,57,23.90
2018,06,17,13,58,24.10
2018,06,17,13,59,24.10
2018,06,17,14,00,24.20
2018,06,17,14,01,24.30
2018,06,17,14,02,24.40
2018,06,17,14,03,24.40
2018,06,17,14,04,24.40
2018,06,17,14,05,24.40
2018,06,17,14,06,24.50
2018,06,17,14,07,24.70
2018,06,17,14,08,24.70
2018,06,17,14,09,24.70
2018,06,17,14,10,24.70
2018,06,17,14,11,24.80
2018,06,17,14,12,24.90
2018,06,17,14,13,25.00
2018,06,17,14,14,25.00
2018,06,17,14,15,25.00
2018,06,17,14,16,25.00
2018,06,17,14,17,25.00
2018,06,17,14,18,25.00
2018,06,17,14,19,25.00
2018,06,17,14,20,25.10
2018,06,17,14,21,25.10
2018,06,17,14,22,25.10
2018,06,17,14,23,25.20
2018,06,17,14,24,25.20
2018,06,17,14,25,25.30
2018,06,17,14,26,25.30
2018,06,17,14,27,25.40
2018,06,17,14,28,25.40
2018,06,17,14,29,25.50
2018,06,17,14,30,25.50
2018,06,17,14,31,25.50
2018,06,17,14,32,25.50
2018,06,17,14,33,25.60
2018,06,17,14,34,25.50
2018,06,17,14,35,25.40
2018,06,17,14,36,25.40
2018,06,17,14,37,25.30
2018,06,17,14,38,25.30
2018,06,17,14,39,25.20
2018,06,17,14,40,25.30
2018,06,17,14,41,25.20
2018,06,17,14,42,25.30
2018,06,17,14,43,25.30
2018,06,17,14,44,25.30
2018,06,17,14,45,25.20
2018,06,17,14,46,25.20
2018,06,17,14,47,25.10
2018,06,17,14,48,25.00
2018,06,17,14,49,25.00
2018,06,17,14,50,24.90
2018,06,17,14,51,24.90
2018,06,17,14,52,24.90
2018,06,17,14,53,24.90
2018,06,17,14,54,24.80
2018,06,17,14,55,24.60
2018,06,17,14,56,24.50
2018,06,17,14,57,24.50
2018,06,17,14,58,24.50
2018,06,17,14,59,24.50
2018,06,17,15,00,24.60
2018,06,17,15,01,24.60
2018,06,17,15,02,24.70
2018,06,17,15,03,24.70
2018,06,17,15,04,24.80
2018,06,17,15,05,24.80
2018,06,17,15,06,24.80
2018,06,17,15,07,24.80
2018,06,17,15,08,24.70
2018,06,17,15,09,24.80
2018,06,17,15,10,24.80
2018,06,17,15,11,24.90
2018,06,17,15,12,24.90
2018,06,17,15,13,24.80
2018,06,17,15,14,24.80
2018,06,17,15,15,24.80
2018,06,17,15,16,24.80
2018,06,17,15,17,24.90
2018,06,17,15,18,25.00
2018,06,17,15,19,25.10
2018,06,17,15,20,25.20
2018,06,17,15,21,25.20
2018,06,17,15,22,25.20
2018,06,17,15,23,25.20
2018,06,17,15,24,25.20
2018,06,17,15,25,25.20
2018,06,17,15,26,25.30
2018,06,17,15,27,25.40
2018,06,17,15,28,25.40
2018,06,17,15,29,25.60
2018,06,17,15,30,25.60
2018,06,17,15,31,25.70
2018,06,17,15,32,25.80
2018,06,17,15,33,25.80
2018,06,17,15,34,25.90
2018,06,17,15,35,25.90
2018,06,17,15,36,25.90
2018,06,17,15,37,25.80
2018,06,17,15,38,25.80
2018,06,17,15,39,25.80
2018,06,17,15,40,25.80
2018,06,17,15,41,25.90
2018,06,17,15,42,25.90
2018,06,17,15,43,25.90
2018,06,17,15,44,25.90
2018,06,17,15,45,26.00
2018,06,17,15,46,26.00
2018,06,17,15,47,26.00
2018,06,17,15,48,26.00
2018,06,17,15,49,26.10
2018,06,17,15,50,26.10
2018,06,17,15,51,26.20
2018,06,17,15,52,26.20
2018,06,17,15,53,26.20
2018,06,17,15,54,26.20
2018,06,17,15,55,26.20
2018,06,17,15,56,26.20
2018,06,17,15,57,26.00
2018,06,17,15,58,26.00
2018,06,17,15,59,26.00
2018,06,17,16,00,26.00
2018,06,17,16,01,26.00
2018,06,17,16,02,26.10
2018,06,17,16,03,26.30
2018,06,17,16,04,26.40
2018,06,17,16,05,26.40
2018,06,17,16,06,26.60
2018,06,17,16,07,26.60
2018,06,17,16,08,26.40
2018,06,17,16,09,26.40
2018,06,17,16,10,26.40
2018,06,17,16,11,26.40
2018,06,17,16,12,26.40
2018,06,17,16,13,26.40
2018,06,17,16,14,26.40
2018,06,17,16,15,26.40
2018,06,17,16,16,26.40
2018,06,17,16,17,26.30
2018,06,17,16,18,26.40
2018,06,17,16,19,26.50
2018,06,17,16,20,26.60
2018,06,17,16,21,26.60
2018,06,17,16,22,26.60
2018,06,17,16,23,26.70
2018,06,17,16,24,26.80
2018,06,17,16,25,26.90
2018,06,17,16,26,27.00
2018,06,17,16,27,27.10
2018,06,17,16,28,27.10
2018,06,17,16,29,27.10
2018,06,17,16,30,27.20
2018,06,17,16,31,27.20
2018,06,17,16,32,27.30
2018,06,17,16,33,27.40
2018,06,17,16,34,27.60
2018,06,17,16,35,27.60
2018,06,17,16,36,27.80
2018,06,17,16,37,27.90
2018,06,17,16,38,27.90
2018,06,17,16,39,27.90
2018,06,17,16,40,28.00
2018,06,17,16,41,28.10
2018,06,17,16,42,28.20
2018,06,17,16,43,28.20
2018,06,17,16,44,28.20
2018,06,17,16,45,28.30
2018,06,17,16,46,28.30
2018,06,17,16,47,28.30
2018,06,17,16,48,28.30
2018,06,17,16,49,28.40
2018,06,17,16,50,28.40
2018,06,17,16,51,28.30
2018,06,17,16,52,28.30
2018,06,17,16,53,28.40
2018,06,17,16,54,28.40
2018,06,17,16,55,28.40
2018,06,17,16,56,28.40
2018,06,17,16,57,28.40
2018,06,17,16,58,28.40
2018,06,17,16,59,28.40
2018,06,17,17,00,28.60
2018,06,17,17,01,28.60
2018,06,17,17,02,28.70
2018,06,17,17,03,28.80
2018,06,17,17,04,28.90
2018,06,17,17,05,29.00
2018,06,17,17,06,29.10
2018,06,17,17,07,29.20
2018,06,17,17,08,29.20
2018,06,17,17,09,29.30
2018,06,17,17,10,29.30
2018,06,17,17,11,29.20
2018,06,17,17,12,29.10
2018,06,17,17,13,29.00
2018,06,17,17,14,28.90
2018,06,17,17,15,28.80
2018,06,17,17,16,28.70
2018,06,17,17,17,28.60
2018,06,17,17,18,28.60
2018,06,17,17,19,28.60